[[{"header":{"parameterUnit":"m.s-1","parameterCategory":1,"la1":30.2991,"la2":30.254,"lo1":-89.0895,"lo2":-89.0444,"dy":0.0017,"dx":0.0017,"nx":28,"ny":28,"refTime":"2025-06-14T09:00:00:Z","depth":0,"parameterNumber":2,"parameterNumberName":"U-component_of_WINDS"},"data":[0,0,0,0,0,0,0,0,0,0,0,0,0,0,0,0,0,0,0,0,0,0,0,0,0,0,0,0,0,0,0,0,0,0,0,0,0,0,0,0,0,0,0,0,0,0,0,0,0,0,0,0,0,0,0,0,0,0,1.1398,1.1398,0,1.1433,1.1433,1.1434,1.1435,1.1434,1.1434,1.1434,1.1468,1.147,1.1471,0,0,0,0,0,0,0,0,0,0,0,0,0,1.1332,1.1333,1.1398,1.1398,1.1399,1.1433,1.1433,1.1434,1.1435,1.1434,1.1434,1.1433,1.1468,1.1469,1.1471,0,0,0,0,0,0,0,0,0,0,0,0,0,1.1363,1.1333,1.1398,1.1404,1.1404,1.1433,1.1433,1.1434,1.1435,1.1434,1.1434,1.1433,1.1467,1.1469,1.1471,1.1496,0,0,1.1477,1.1478,0,0,0,0,0,0,0,0,1.1361,1.1365,1.1402,1.1403,1.1404,1.1429,1.1423,1.1455,1.1435,1.1423,1.1434,1.1433,1.1456,1.1458,1.1466,1.1497,1.1499,1.1477,1.1479,1.1479,1.148,0,0,0,0,0,0,0,1.1359,1.1364,1.1412,1.1403,1.1404,1.1404,1.1408,1.1429,1.1442,1.1424,1.1424,1.1429,1.1456,1.1464,1.1467,1.1499,1.1477,1.1479,1.148,1.1481,1.1552,1.1553,0,0,0,0,0,0,1.1356,1.1362,1.1411,1.1413,1.1381,1.1406,1.141,1.1422,1.1442,1.1445,1.1429,1.1429,1.1461,1.1465,1.1468,1.1499,1.1479,1.1481,1.1482,1.1552,1.1552,1.1553,0,0,0,0,0,0,1.1354,1.136,1.1409,1.1387,1.1394,1.1408,1.1421,1.1423,1.1431,1.1446,1.1448,1.1435,1.1461,1.1466,1.1489,1.15,1.1482,1.1484,1.1551,1.1552,1.1553,1.1559,0,0,0,0,0,0,1.1352,1.136,1.1369,1.1388,1.1395,1.143,1.1421,1.1424,1.1435,1.1434,1.1452,1.1455,1.1461,1.1486,1.1491,1.1502,1.1485,1.155,1.1551,1.1552,1.1558,1.156,1.1562,0,0,0,0,0,1.135,1.1369,1.137,1.1376,1.1407,1.143,1.1434,1.1441,1.1435,1.1445,1.1455,1.1454,1.1498,1.1488,1.1494,1.1506,1.1549,1.1551,1.1552,1.1557,1.156,1.1562,0,0,0,0,0,0,1.1352,1.1372,1.1373,1.1399,1.1413,1.143,1.1443,1.1444,1.146,1.1459,1.1466,1.147,1.1494,1.1502,1.1491,1.1531,1.1523,1.1526,1.1524,1.1527,1.1529,1.1527,1.1487,0,0,0,0,0,1.1355,1.1372,1.1389,1.141,1.1417,1.1429,1.1439,1.1443,1.1458,1.1464,1.1475,1.1489,1.1506,1.1517,1.1533,1.1559,1.1563,1.157,1.1572,1.1574,1.1576,1.159,1.1594,1.1558,1.1558,1.1558,0,0,1.1362,1.1375,1.1386,1.1411,1.1422,1.144,1.1434,1.1452,1.1465,1.1467,1.1489,1.1498,1.1514,1.1539,1.155,1.1547,1.1587,1.1576,1.1577,1.1578,1.1592,1.1596,1.1598,1.156,1.1559,1.1559,0,0,1.1384,1.1396,1.1415,1.1427,1.1444,1.1452,1.1456,1.1474,1.148,1.1503,1.1504,1.1519,1.1548,1.156,1.157,1.1596,1.1596,1.1601,1.1612,1.1626,1.1628,1.1631,1.164,1.1643,1.1603,1.1603,1.1603,0,1.1391,1.1417,1.1425,1.1443,1.1454,1.1457,1.1476,1.1486,1.1508,1.1516,1.1511,1.1548,1.1559,1.1586,1.1593,1.16,1.1606,1.1599,1.1627,1.163,1.1632,1.1641,1.1645,1.1604,1.1604,1.1604,1.1604,0,1.1424,1.1443,1.1456,1.1477,1.149,1.1509,1.1518,1.153,1.1533,1.1541,1.1564,1.1578,1.1597,1.1604,1.1607,1.1632,1.1629,1.1626,1.1618,1.1636,1.1645,1.1648,1.1604,1.1604,1.1604,1.1604,0,0,1.1448,1.1474,1.1478,1.1488,1.1508,1.1522,1.154,1.156,1.1569,1.1584,1.16,1.1624,1.1622,1.1633,1.1637,1.1649,1.1669,1.1645,1.1645,1.1649,1.1697,1.1699,1.1703,1.1669,1.167,1.1671,1.1696,0,1.1472,1.1506,1.1513,1.1543,1.1559,1.1562,1.1578,1.1592,1.16,1.1615,1.1623,1.1641,1.1636,1.1643,1.1655,1.1664,1.1679,1.1662,1.1684,1.1685,1.168,1.1708,1.171,1.1733,1.1699,1.17,1.17,0,1.1505,1.1521,1.1552,1.1569,1.1577,1.1591,1.1609,1.1624,1.1639,1.1644,1.1656,1.1659,1.1679,1.167,1.1697,1.1685,1.1694,1.17,1.1701,1.1704,1.1694,1.1711,1.1741,1.1744,1.1706,1.1705,1.1705,0,1.1519,1.1548,1.1571,1.1579,1.16,1.161,1.1619,1.1634,1.1645,1.166,1.1668,1.1685,1.1695,1.1708,1.1716,1.1708,1.1742,1.1733,1.1746,1.1746,1.1753,1.1752,1.1785,1.1759,1.1759,1.1759,1.1759,0,1.1545,1.1564,1.1578,1.1591,1.1612,1.162,1.1641,1.165,1.1663,1.1678,1.1681,1.1695,1.1705,1.172,1.1726,1.1747,1.1751,1.1756,1.1757,1.1756,1.1755,1.1762,1.176,1.176,1.1759,1.1759,1.1759,0,1.1564,1.1574,1.1599,1.1617,1.1622,1.1636,1.1652,1.1665,1.1673,1.1692,1.1697,1.1709,1.1728,1.1737,1.1759,1.1763,1.1787,1.1787,1.1782,1.1783,1.1795,1.1794,1.1833,1.1839,1.1809,1.1809,1.1809,0,1.158,1.1595,1.1615,1.1625,1.1635,1.1652,1.1663,1.1671,1.1683,1.1702,1.1713,1.1731,1.1747,1.1776,1.1787,1.1804,1.1805,1.1817,1.1807,1.1805,1.1805,1.1804,1.1805,1.1819,1.1819,1.1819,1.182,0,1.1608,1.1612,1.1628,1.1647,1.166,1.1675,1.1689,1.1698,1.1708,1.1721,1.174,1.1752,1.1775,1.1794,1.1812,1.1821,1.1822,1.1823,1.1827,1.1825,1.1822,1.1824,1.1787,1.1822,1.1822,1.1821,1.1821,1.1821,1.1626,1.1639,1.1655,1.1673,1.1685,1.1699,1.1712,1.1722,1.1738,1.1758,1.1762,1.1782,1.1797,1.1821,1.1831,1.1846,1.1843,1.1849,1.185,1.1852,1.1852,1.1819,1.185,1.185,1.185,1.1849,1.1849,0,1.1653,1.1664,1.1681,1.1701,1.1715,1.1715,1.1731,1.1743,1.1761,1.1775,1.179,1.1812,1.183,1.1842,1.186,1.187,1.1871,1.1875,1.1874,1.1876,1.1854,1.1849,1.1874,1.1874,1.1874,1.1874,1.1874,1.1874,1.1669,1.1692,1.1698,1.1726,1.1736,1.1757,1.1766,1.1778,1.1789,1.1814,1.1829,1.1837,1.185,1.1869,1.1885,1.1888,1.1895,1.1898,1.1901,1.188,1.1878,1.1875,1.1871,1.19,1.19,1.1922,1.1922,1.1923]},{"header":{"parameterUnit":"m.s-1","parameterCategory":1,"la1":30.2991,"la2":30.254,"lo1":-89.0895,"lo2":-89.0444,"dy":0.0017,"dx":0.0017,"nx":28,"ny":28,"refTime":"2025-06-14T09:00:00:Z","depth":0,"parameterNumber":3,"parameterNumberName":"V-component_of_WINDS"},"data":[0,0,0,0,0,0,0,0,0,0,0,0,0,0,0,0,0,0,0,0,0,0,0,0,0,0,0,0,0,0,0,0,0,0,0,0,0,0,0,0,0,0,0,0,0,0,0,0,0,0,0,0,0,0,0,0,0,0,2.8097,2.8097,0,2.8093,2.8092,2.8092,2.8085,2.8085,2.8085,2.8085,2.808,2.808,2.808,0,0,0,0,0,0,0,0,0,0,0,0,0,2.8101,2.8101,2.8097,2.8097,2.8097,2.8093,2.8092,2.8092,2.8086,2.8085,2.8085,2.8085,2.808,2.808,2.808,0,0,0,0,0,0,0,0,0,0,0,0,0,2.8098,2.8101,2.8097,2.8093,2.8093,2.8093,2.8092,2.8092,2.8086,2.8085,2.8085,2.8085,2.808,2.808,2.808,2.8084,0,0,2.808,2.808,0,0,0,0,0,0,0,0,2.8098,2.8098,2.8094,2.8093,2.8093,2.8089,2.8092,2.809,2.8086,2.8088,2.8085,2.8085,2.8084,2.8083,2.8083,2.8084,2.8083,2.808,2.808,2.808,2.808,0,0,0,0,0,0,0,2.8099,2.8098,2.8095,2.8094,2.8093,2.8092,2.8091,2.8092,2.8087,2.8088,2.8088,2.8087,2.8083,2.8083,2.8083,2.8083,2.808,2.808,2.808,2.808,2.8088,2.8088,0,0,0,0,0,0,2.8099,2.8098,2.8096,2.8095,2.8095,2.8092,2.8091,2.8091,2.8087,2.8086,2.8087,2.8087,2.8083,2.8083,2.8082,2.8087,2.808,2.808,2.808,2.8087,2.8088,2.8088,0,0,0,0,0,0,2.8099,2.8099,2.8096,2.8097,2.8096,2.8092,2.8092,2.8091,2.809,2.8086,2.8086,2.8087,2.8083,2.8082,2.8084,2.8086,2.808,2.808,2.8087,2.8088,2.8088,2.8095,0,0,0,0,0,0,2.81,2.8099,2.81,2.8097,2.8096,2.8097,2.8092,2.8091,2.809,2.809,2.8086,2.8086,2.8083,2.8084,2.8084,2.8086,2.808,2.8087,2.8087,2.8088,2.8094,2.8095,2.8096,0,0,0,0,0,2.81,2.8102,2.81,2.81,2.8097,2.8097,2.8097,2.8093,2.809,2.8092,2.8089,2.8086,2.8086,2.8084,2.8084,2.8086,2.8087,2.8087,2.8088,2.8094,2.8095,2.8096,0,0,0,0,0,0,2.8106,2.8102,2.81,2.8101,2.81,2.8096,2.8097,2.8094,2.8093,2.8093,2.8089,2.8088,2.809,2.8088,2.8086,2.809,2.8086,2.8086,2.8091,2.8092,2.8093,2.8093,2.808,0,0,0,0,0,2.8108,2.8108,2.8104,2.8106,2.8105,2.8101,2.8101,2.8098,2.8097,2.8096,2.8094,2.8092,2.8092,2.8092,2.8091,2.8094,2.8094,2.8096,2.8097,2.8098,2.8098,2.81,2.8101,2.8089,2.8089,2.8089,0,0,2.8111,2.8108,2.8109,2.8107,2.8105,2.8106,2.8101,2.8101,2.8101,2.8096,2.8097,2.8095,2.8094,2.8096,2.8097,2.8095,2.8101,2.8098,2.8099,2.8099,2.8101,2.8102,2.8103,2.809,2.809,2.809,0,0,2.8117,2.8115,2.8116,2.8115,2.8113,2.8111,2.8111,2.8108,2.8107,2.8108,2.8104,2.8105,2.8104,2.8103,2.8103,2.8109,2.8106,2.8109,2.8114,2.8116,2.8117,2.8118,2.8121,2.8121,2.811,2.811,2.811,0,2.8121,2.8121,2.8117,2.8118,2.8118,2.8113,2.8115,2.8114,2.8112,2.8112,2.8109,2.8109,2.8108,2.811,2.8112,2.8111,2.8112,2.8109,2.8117,2.8118,2.8119,2.8121,2.8122,2.811,2.811,2.811,2.811,0,2.8126,2.8127,2.8128,2.8127,2.8126,2.8127,2.8124,2.8125,2.8122,2.812,2.8122,2.812,2.8119,2.812,2.8117,2.8122,2.8121,2.8118,2.8114,2.812,2.8123,2.8123,2.8111,2.8111,2.8111,2.811,0,0,2.8135,2.8132,2.8133,2.8132,2.813,2.813,2.8132,2.8131,2.8132,2.8131,2.8132,2.8132,2.813,2.8129,2.8127,2.8129,2.8135,2.8126,2.8126,2.8128,2.814,2.8142,2.8143,2.8133,2.8133,2.8133,2.814,0,2.8141,2.8143,2.814,2.8143,2.8143,2.8139,2.8141,2.814,2.8138,2.8139,2.8137,2.8137,2.8134,2.8134,2.8135,2.8134,2.8137,2.8133,2.8134,2.8134,2.8135,2.8144,2.8147,2.8153,2.8141,2.8141,2.8141,0,2.8147,2.8147,2.815,2.8148,2.8148,2.8149,2.8149,2.8149,2.8149,2.8147,2.8147,2.8145,2.8146,2.8143,2.8145,2.8142,2.8143,2.8142,2.8142,2.8142,2.8138,2.8145,2.8155,2.8156,2.8143,2.8143,2.8143,0,2.8154,2.8154,2.8156,2.8156,2.8154,2.8155,2.8154,2.8153,2.8153,2.8153,2.8153,2.8153,2.8153,2.8154,2.8151,2.8149,2.8154,2.815,2.8154,2.8154,2.8155,2.8155,2.8166,2.8155,2.8155,2.8155,2.8155,0,2.816,2.8162,2.8159,2.816,2.8162,2.8159,2.8162,2.8161,2.816,2.8161,2.8158,2.8159,2.8156,2.8157,2.8155,2.8158,2.8158,2.8157,2.8157,2.8158,2.8158,2.8158,2.8157,2.8155,2.8155,2.8155,2.8155,0,2.8168,2.8166,2.8168,2.8166,2.8165,2.8167,2.8166,2.8167,2.8166,2.8167,2.8167,2.8165,2.8166,2.8164,2.8165,2.8164,2.8168,2.8166,2.8168,2.8168,2.8171,2.8171,2.8183,2.8184,2.8172,2.8173,2.8173,0,2.8172,2.8174,2.8172,2.8173,2.8172,2.8173,2.8173,2.8171,2.8171,2.8171,2.8172,2.8173,2.8174,2.8176,2.8174,2.8175,2.8174,2.8178,2.8174,2.8175,2.8175,2.8175,2.8175,2.8179,2.8179,2.8179,2.8179,0,2.818,2.8179,2.8179,2.818,2.818,2.818,2.818,2.8181,2.8178,2.8179,2.818,2.8181,2.8182,2.8183,2.8184,2.8183,2.8181,2.8181,2.8182,2.8182,2.8183,2.8183,2.817,2.818,2.818,2.818,2.818,2.818,2.8186,2.8188,2.8187,2.8188,2.8188,2.8188,2.8189,2.8188,2.8189,2.8189,2.8188,2.819,2.819,2.819,2.819,2.8192,2.819,2.8191,2.8192,2.8192,2.8193,2.8183,2.8192,2.8192,2.8192,2.8192,2.8192,0,2.8194,2.8194,2.8194,2.8195,2.8196,2.8193,2.8193,2.8194,2.8196,2.8196,2.8197,2.8198,2.82,2.8199,2.82,2.8202,2.8201,2.8202,2.8202,2.8202,2.8194,2.8193,2.8203,2.8203,2.8203,2.8203,2.8203,2.8203,2.8198,2.8201,2.82,2.8202,2.8202,2.8203,2.8204,2.8204,2.8204,2.8206,2.8207,2.8207,2.8207,2.8208,2.8209,2.8209,2.821,2.8212,2.8211,2.8204,2.8202,2.8201,2.8201,2.8212,2.8212,2.8219,2.8219,2.8219]}]]